DW3706 Winthrop MA US current weather conditions

sailwx.info

Wind from 219 at 1 knots gusting 4

Air temperature 1.1° C
Dewpoint -4.1° C

Last reported at 2019-Dec-06 19:01 UTC.
Time now 2019-Dec-06 20:13 UTC

Location: N 42°23' W 070°58'.
View on Google Maps.

See reports from other nearby stations

  
Tides and Currents Weather Stations Pressure Air Temp Water Temp Dewpoint Dewpoint Depression Visibility Wind Speed Wind Dir Waves Ship Positions
date/time (UTC)wind fromknots sea level pressurealtimeterstation pressurevisibilityair tempwater tempwave heightnotes
2019-Dec-06 19:01 219 1 gusting 4 1.1
2019-Dec-06 18:55 195 1.1
2019-Dec-06 18:50 196 1 gusting 5 1.1
2019-Dec-06 18:45 223 0 gusting 6 1.1
2019-Dec-06 18:40 209 3 gusting 6 1.1
2019-Dec-06 18:35 208 3 gusting 6 1.1
2019-Dec-06 18:32 228 4 gusting 8 1.1
2019-Dec-06 18:25 228 3 gusting 8 1.1
2019-Dec-06 18:20 247 5 gusting 8 1.1
2019-Dec-06 18:15 228 6 gusting 9 1.1
2019-Dec-06 18:10 235 7 gusting 11 1.1
2019-Dec-06 18:05 237 6 gusting 11 1.1
2019-Dec-06 18:01 227 6 gusting 10 1.1
2019-Dec-06 17:55 246 4 gusting 9 1.1
2019-Dec-06 17:50 216 4 gusting 11 1.1
2019-Dec-06 17:45 248 6 gusting 11 1.1
2019-Dec-06 17:40 247 6 gusting 9 1.1
2019-Dec-06 17:35 220 6 gusting 12 1.1
2019-Dec-06 17:30 242 8 gusting 12 1.1
2019-Dec-06 17:25 219 7 gusting 13 1.1
2019-Dec-06 17:20 208 7 gusting 13 1.1
2019-Dec-06 17:16 231 6 gusting 13 1.1
2019-Dec-06 17:10 236 7 gusting 12 1.1
2019-Dec-06 17:05 227 6 gusting 11 0.6
2019-Dec-06 17:01 229 4 gusting 13 0.6
2019-Dec-06 16:55 226 6 gusting 13 0.6
2019-Dec-06 16:50 242 7 gusting 11 0.6
2019-Dec-06 16:45 242 6 gusting 10 0.6
2019-Dec-06 16:40 231 6 gusting 11 0.6
2019-Dec-06 16:35 227 6 gusting 8 0.6
2019-Dec-06 16:30 233 3 gusting 9 0.6
2019-Dec-06 16:25 239 6 gusting 10 0.6
2019-Dec-06 16:20 227 6 gusting 11 0.6
2019-Dec-06 16:15 231 6 gusting 9 0.6
2019-Dec-06 16:10 218 6 gusting 9 0.6
2019-Dec-06 16:05 259 6 gusting 13 0.6
2019-Dec-06 16:00 222 6 gusting 13 0.6
2019-Dec-06 15:55 229 8 gusting 13 -0.0
2019-Dec-06 15:50 236 7 gusting 11 -0.0
2019-Dec-06 15:45 236 7 gusting 11 -0.0
2019-Dec-06 15:40 217 7 gusting 12 -0.0
2019-Dec-06 15:35 192 6 gusting 11 -0.0
2019-Dec-06 15:30 235 6 gusting 9 -0.0
2019-Dec-06 15:25 225 6 gusting 10 -0.0
2019-Dec-06 15:20 227 5 gusting 10 -0.0
2019-Dec-06 15:15 229 6 gusting 9 -0.0
2019-Dec-06 15:10 219 5 gusting 8 -0.0
2019-Dec-06 15:00 231 1 gusting 8 -0.6
2019-Dec-06 14:55 231 6 gusting 9 -0.6
2019-Dec-06 14:50 217 5 gusting 9 -0.6
2019-Dec-06 14:40 226 6 gusting 8 -0.6
2019-Dec-06 14:35 224 5 gusting 8 -0.6
2019-Dec-06 14:30 227 6 gusting 9 -0.6
2019-Dec-06 14:20 238 4 gusting 8 -0.6
2019-Dec-06 14:15 229 4 gusting 7 -1.1
2019-Dec-06 14:10 223 5 gusting 8 -1.1
2019-Dec-06 14:05 240 6 gusting 8 -1.1
2019-Dec-06 13:55 215 4 gusting 7 -1.1
2019-Dec-06 13:50 223 6 gusting 9 -1.1
2019-Dec-06 13:45 229 6 gusting 9 -1.1
2019-Dec-06 13:40 221 5 gusting 9 -1.1
2019-Dec-06 13:35 231 5 gusting 9 -1.7
2019-Dec-06 13:25 242 5 gusting 11 -1.7
2019-Dec-06 13:20 238 6 gusting 11 -1.7
2019-Dec-06 13:15 231 6 gusting 10 -1.7
2019-Dec-06 13:10 223 6 gusting 10 -1.7
2019-Dec-06 13:05 226 6 gusting 10 -1.7
2019-Dec-06 12:56 227 6 gusting 9 -1.7
2019-Dec-06 12:51 232 5 gusting 8 -1.7
2019-Dec-06 12:46 231 4 gusting 9 -2.2
2019-Dec-06 12:40 244 7 gusting 9 -2.2
2019-Dec-06 12:36 227 6 gusting 8 -2.2
2019-Dec-06 12:32 215 4 gusting 9 -2.2
2019-Dec-06 12:25 223 4 gusting 8 -2.2
2019-Dec-06 12:20 215 5 gusting 8 -2.2
2019-Dec-06 12:17 230 2 gusting 6 -2.2
2019-Dec-06 12:10 226 3 gusting 6 -2.2
2019-Dec-06 12:05 240 1 gusting 6 -2.2
2019-Dec-06 12:01 233 2 gusting 6 -2.2
2019-Dec-06 11:55 254 2 gusting 5 -2.2
2019-Dec-06 11:50 266 -2.2
2019-Dec-06 11:46 266 -2.2
2019-Dec-06 11:40 266 0 gusting 2 -2.2
2019-Dec-06 11:35 266 -2.2
2019-Dec-06 11:31 266 2 gusting 7 -1.7
2019-Dec-06 11:25 265 3 gusting 7 -1.7
2019-Dec-06 11:20 255 3 gusting 8 -1.7
2019-Dec-06 11:16 270 4 gusting 8 -2.2
2019-Dec-06 11:10 275 5 gusting 9 -2.2
2019-Dec-06 11:06 267 5 gusting 11 -2.2
2019-Dec-06 11:01 260 6 gusting 11 -2.2
2019-Dec-06 10:55 267 4 gusting 11 -2.2
2019-Dec-06 10:50 261 4 gusting 11 -2.2
2019-Dec-06 10:46 248 6 gusting 10 -2.2
2019-Dec-06 10:40 260 6 gusting 10 -2.2
2019-Dec-06 10:35 279 5 gusting 8 -2.2
2019-Dec-06 10:31 264 4 gusting 11 -2.2
2019-Dec-06 10:25 260 5 gusting 11 -2.2
2019-Dec-06 10:20 263 4 gusting 9 -1.7
2019-Dec-06 10:16 265 6 gusting 9 -1.7
2019-Dec-06 10:10 274 5 gusting 11 -1.7
2019-Dec-06 10:05 267 6 gusting 11 -1.7
2019-Dec-06 10:01 285 6 gusting 11 -1.7
2019-Dec-06 09:55 284 6 gusting 11 -1.7
2019-Dec-06 09:50 253 6 gusting 11 -1.7
2019-Dec-06 09:45 260 5 gusting 9 -1.7
2019-Dec-06 09:40 255 6 gusting 11 -1.7
2019-Dec-06 09:35 271 6 gusting 11 -1.7
2019-Dec-06 09:31 264 6 gusting 11 -1.7
2019-Dec-06 09:25 267 4 gusting 9 -1.7
2019-Dec-06 09:20 256 4 gusting 6 -1.7
2019-Dec-06 09:16 266 2 gusting 6 -1.7
2019-Dec-06 09:10 271 4 gusting 8 -1.7
2019-Dec-06 09:05 264 6 gusting 8 -1.7
2019-Dec-06 09:01 275 4 gusting 8 -1.7
2019-Dec-06 08:55 250 3 gusting 8 -1.7
2019-Dec-06 08:50 270 5 gusting 8 -1.7
2019-Dec-06 08:45 262 4 gusting 9 -1.7
2019-Dec-06 08:40 264 5 gusting 9 -1.7
2019-Dec-06 08:35 268 4 gusting 7 -1.7
2019-Dec-06 08:31 248 4 gusting 7 -1.7
2019-Dec-06 08:25 264 5 gusting 8 -1.7
2019-Dec-06 08:20 270 6 gusting 8 -1.7
2019-Dec-06 08:16 269 5 gusting 9 -1.7
2019-Dec-06 08:10 263 4 gusting 11 -1.7
2019-Dec-06 08:05 257 5 gusting 11 -1.7
2019-Dec-06 08:00 253 5 gusting 8 -1.7
2019-Dec-06 07:55 267 4 gusting 8 -1.7
2019-Dec-06 07:50 269 5 gusting 7 -1.7
2019-Dec-06 07:45 258 4 gusting 9 -1.7
2019-Dec-06 07:40 271 5 gusting 11 -1.7
2019-Dec-06 07:35 272 5 gusting 11 -1.7
2019-Dec-06 07:30 249 6 gusting 10 -1.7
2019-Dec-06 07:25 249 6 gusting 11 -1.7
2019-Dec-06 07:20 274 5 gusting 11 -1.7
2019-Dec-06 07:15 263 6 gusting 11 -1.7
2019-Dec-06 07:10 273 5 gusting 9 -1.7
2019-Dec-06 07:05 258 5 gusting 7 -1.7
2019-Dec-06 07:01 266 3 gusting 8 -1.7
2019-Dec-06 06:55 270 5 gusting 8 -1.7
2019-Dec-06 06:50 267 3 gusting 10 -1.7
2019-Dec-06 06:45 270 2 gusting 10 -1.7
2019-Dec-06 06:40 275 4 gusting 9 -1.7
2019-Dec-06 06:35 294 5 gusting 9 -1.7
2019-Dec-06 06:31 264 4 gusting 12 -1.7
2019-Dec-06 06:25 277 5 gusting 12 -1.7
2019-Dec-06 06:20 266 5 gusting 10 -1.7
2019-Dec-06 06:15 261 6 gusting 10 -1.7
2019-Dec-06 06:10 290 6 gusting 15 -1.7
2019-Dec-06 06:05 282 8 gusting 15 -1.7
2019-Dec-06 06:00 280 6 gusting 17 -1.7
2019-Dec-06 05:55 308 10 gusting 17 -1.7
2019-Dec-06 05:50 295 6 gusting 18 -1.7
2019-Dec-06 05:45 275 5 gusting 13 -1.1
2019-Dec-06 05:40 268 5 gusting 13 -1.1
2019-Dec-06 05:35 271 6 gusting 14 -1.1
2019-Dec-06 05:25 271 6 gusting 21 -1.1
2019-Dec-06 05:20 286 10 gusting 23 -1.1
2019-Dec-06 05:15 302 11 gusting 23 -1.1
2019-Dec-06 05:10 296 9 gusting 21 -1.1
2019-Dec-06 05:05 287 10 gusting 20 -1.1
2019-Dec-06 05:00 298 10 gusting 19 -1.1
2019-Dec-06 04:55 302 11 gusting 19 -1.1
2019-Dec-06 04:50 273 8 gusting 16 -0.6
2019-Dec-06 04:45 298 10 gusting 15 -0.6
2019-Dec-06 04:40 285 11 gusting 16 -0.6
2019-Dec-06 04:35 272 7 gusting 16 -0.6
2019-Dec-06 04:26 290 8 gusting 16 -0.6
2019-Dec-06 04:21 279 9 gusting 18 -0.6
2019-Dec-06 04:16 300 7 gusting 18 -0.6
2019-Dec-06 04:10 254 5 gusting 14 -0.6
2019-Dec-06 04:05 298 7 gusting 19 -0.6
2019-Dec-06 04:02 309 9 gusting 19 -0.6
2019-Dec-06 03:55 281 13 gusting 19 -0.6
2019-Dec-06 03:50 308 9 gusting 18 -0.0
2019-Dec-06 03:47 314 6 gusting 13 -0.0
2019-Dec-06 03:40 301 6 gusting 13 -0.0
2019-Dec-06 03:35 290 6 gusting 13 -0.0
2019-Dec-06 03:30 273 6 gusting 13 -0.0
2019-Dec-06 03:25 283 6 gusting 14 -0.0
2019-Dec-06 03:17 285 7 gusting 14 -0.0
2019-Dec-06 03:10 277 10 gusting 14 0.6
2019-Dec-06 03:05 275 6 gusting 14 0.6
2019-Dec-06 03:01 288 8 gusting 16 0.6
2019-Dec-06 02:55 271 6 gusting 16 0.6
2019-Dec-06 02:50 273 11 gusting 16 0.6
2019-Dec-06 02:46 261 9 gusting 19 0.6
2019-Dec-06 02:40 272 6 gusting 15 0.6
2019-Dec-06 02:35 282 8 gusting 21 0.6
2019-Dec-06 02:31 271 12 gusting 21 0.6
2019-Dec-06 02:25 266 10 gusting 19 1.1
2019-Dec-06 02:20 269 9 gusting 19 1.1
2019-Dec-06 02:16 278 9 gusting 19 1.1
2019-Dec-06 02:10 284 9 gusting 20 1.1
2019-Dec-06 02:05 295 12 gusting 20 1.1
2019-Dec-06 02:01 271 11 gusting 18 1.1
2019-Dec-06 01:55 313 9 gusting 17 1.1
2019-Dec-06 01:50 287 10 gusting 17 1.1
2019-Dec-06 01:46 252 8 gusting 22 1.1
2019-Dec-06 01:40 280 8 gusting 22 1.7
2019-Dec-06 01:35 264 9 gusting 17 1.7
2019-Dec-06 01:30 250 7 gusting 15 1.7
2019-Dec-06 01:25 267 8 gusting 14 1.7
2019-Dec-06 01:20 287 7 gusting 17 1.7
2019-Dec-06 01:16 283 5 gusting 17 1.7
2019-Dec-06 01:10 284 11 gusting 17 1.7
2019-Dec-06 01:05 277 6 gusting 19 1.7
2019-Dec-06 01:00 281 10 gusting 18 1.7
2019-Dec-06 00:55 289 11 gusting 20 1.7
2019-Dec-06 00:50 276 12 gusting 20 1.7
2019-Dec-06 00:45 296 10 gusting 19 1.7
2019-Dec-06 00:40 287 8 gusting 20 1.7
2019-Dec-06 00:35 268 8 gusting 20 1.7
2019-Dec-06 00:30 271 11 gusting 19 1.7
2019-Dec-06 00:25 271 8 gusting 19 1.7
2019-Dec-06 00:20 283 10 gusting 20 1.7
2019-Dec-06 00:15 298 9 gusting 23 2.2
2019-Dec-06 00:10 266 9 gusting 23 2.2
2019-Dec-06 00:05 272 10 gusting 16 2.2
2019-Dec-06 00:00 255 10 gusting 15 2.2
2019-Dec-05 23:55 257 8 gusting 16 2.2
2019-Dec-05 23:50 275 10 gusting 16 2.2
2019-Dec-05 23:45 278 9 gusting 15 2.2
2019-Dec-05 23:40 277 8 gusting 16 2.8
2019-Dec-05 23:35 266 7 gusting 19 2.8
2019-Dec-05 23:30 286 12 gusting 19 2.8
2019-Dec-05 23:25 259 10 gusting 16 2.8
2019-Dec-05 23:20 276 6 gusting 18 2.8
2019-Dec-05 23:10 280 10 gusting 16 2.8
2019-Dec-05 23:05 279 10 gusting 16 2.8
2019-Dec-05 22:55 281 6 gusting 17 3.3
2019-Dec-05 22:45 281 8 gusting 18 3.3
2019-Dec-05 22:40 273 8 gusting 19 3.3
2019-Dec-05 22:35 262 11 gusting 19 3.3
2019-Dec-05 22:25 281 7 gusting 18 3.3
2019-Dec-05 22:20 288 8 gusting 18 3.3
2019-Dec-05 22:10 266 6 gusting 12 3.3
2019-Dec-05 22:05 278 6 gusting 14 3.3
2019-Dec-05 22:00 269 7 gusting 15 3.3
2019-Dec-05 21:55 307 7 gusting 15 3.3
2019-Dec-05 21:50 289 5 gusting 16 3.9
2019-Dec-05 21:45 267 8 gusting 16 3.9
2019-Dec-05 21:40 304 6 gusting 19 3.9
2019-Dec-05 21:32 273 13 gusting 24 3.9
2019-Dec-05 21:25 274 9 gusting 19 3.9
2019-Dec-05 21:20 279 7 gusting 14 3.9
2019-Dec-05 21:16 275 8 gusting 13 4.4
2019-Dec-05 21:10 271 6 gusting 13 4.4
2019-Dec-05 21:05 271 6 gusting 13 4.4
2019-Dec-05 21:02 292 6 gusting 14 4.4
2019-Dec-05 20:56 314 8 gusting 14 4.4
2019-Dec-05 20:50 288 7 gusting 13 4.4
2019-Dec-05 20:46 296 6 gusting 19 4.4
2019-Dec-05 20:40 275 8 gusting 19 4.4
2019-Dec-05 20:35 287 8 gusting 13 4.4
2019-Dec-05 20:31 281 8 gusting 14 4.4
2019-Dec-05 20:25 275 5 gusting 14 4.4
2019-Dec-05 20:20 294 6 gusting 14 4.4
2019-Dec-05 20:16 281 7 gusting 13 4.4
2019-Dec-05 20:10 279 5 gusting 13 4.4
2019-Dec-05 20:05 277 9 gusting 15 4.4
2019-Dec-05 20:01 267 8 gusting 15 4.4
2019-Dec-05 19:55 258 8 gusting 16 5.0
2019-Dec-05 19:50 291 10 gusting 20 5.0
2019-Dec-05 19:46 289 8 gusting 20 5.0
2019-Dec-05 19:40 250 8 gusting 15 5.0
2019-Dec-05 19:35 280 6 gusting 18 5.0
2019-Dec-05 19:31 264 10 gusting 18 5.0
2019-Dec-05 19:25 262 8 gusting 14 5.0
2019-Dec-05 19:20 275 8 gusting 14 5.0
2019-Dec-05 19:16 271 8 gusting 13 5.0
2019-Dec-05 19:10 273 7 gusting 16 5.0
2019-Dec-05 19:05 296 7 gusting 16 5.0
2019-Dec-05 19:02 273 6 gusting 15 5.6
2019-Dec-05 18:55 288 6 gusting 17 5.6
2019-Dec-05 18:50 299 8 gusting 19 5.6
2019-Dec-05 18:47 292 10 gusting 19 5.6
2019-Dec-05 18:40 280 6 gusting 13 5.6
2019-Dec-05 18:35 298 5 gusting 14 5.6
2019-Dec-05 18:31 272 7 gusting 16 5.6
2019-Dec-05 18:25 323 6 gusting 16 5.6
2019-Dec-05 18:20 264 9 gusting 18 5.6
2019-Dec-05 18:15 279 8 gusting 15 5.6
2019-Dec-05 18:10 297 10 gusting 20 5.6
2019-Dec-05 18:05 280 12 gusting 20 5.6
2019-Dec-05 18:01 282 11 gusting 19 5.6
2019-Dec-05 17:55 281 10 gusting 19 5.6
2019-Dec-05 17:50 283 11 gusting 19 5.6
2019-Dec-05 17:45 277 11 gusting 19 5.6
2019-Dec-05 17:40 292 9 gusting 16 5.6
2019-Dec-05 17:35 281 9 gusting 19 5.6
2019-Dec-05 17:30 277 11 gusting 19 5.6
2019-Dec-05 17:25 281 8 gusting 15 5.6
2019-Dec-05 17:20 319 5 gusting 15 5.6
2019-Dec-05 17:15 267 7 gusting 17 5.6
2019-Dec-05 17:10 311 5 gusting 17 5.6
2019-Dec-05 17:05 312 5 gusting 13 5.0
2019-Dec-05 17:00 289 8 gusting 15 5.0
2019-Dec-05 16:55 310 12 gusting 15 5.0
2019-Dec-05 16:50 269 6 gusting 18 5.0
2019-Dec-05 16:45 285 10 gusting 17 5.0
2019-Dec-05 16:40 283 11 gusting 18 5.0
2019-Dec-05 16:35 261 6 gusting 14 5.0
2019-Dec-05 16:31 287 7 gusting 15 5.0
2019-Dec-05 16:25 288 6 gusting 15 5.0
2019-Dec-05 16:20 275 8 gusting 15 5.0
2019-Dec-05 16:15 272 6 gusting 19 5.0
2019-Dec-05 16:10 295 12 gusting 19 4.4
2019-Dec-05 16:05 279 10 gusting 16 4.4
2019-Dec-05 16:01 275 10 gusting 21 4.4
2019-Dec-05 15:55 262 12 gusting 21 4.4
2019-Dec-05 15:50 270 11 gusting 20 4.4
2019-Dec-05 15:45 269 10 gusting 20 4.4
2019-Dec-05 15:40 275 9 gusting 18 4.4
2019-Dec-05 15:35 269 7 gusting 19 4.4
2019-Dec-05 15:30 273 10 gusting 19 4.4
2019-Dec-05 15:25 294 10 gusting 19 4.4
2019-Dec-05 15:20 279 6 gusting 13 4.4
2019-Dec-05 15:10 285 7 gusting 13 3.9
2019-Dec-05 15:05 295 6 gusting 14 3.9
2019-Dec-05 14:55 266 6 gusting 12 3.3
2019-Dec-05 14:50 279 7 gusting 13 3.3
2019-Dec-05 14:40 271 6 gusting 12 3.3
2019-Dec-05 14:35 273 6 gusting 9 2.8
2019-Dec-05 14:30 277 5 gusting 12 2.8
2019-Dec-05 14:21 260 6 gusting 11 2.2
2019-Dec-05 14:17 271 6 gusting 12 2.2
2019-Dec-05 14:10 273 6 gusting 13 2.2
2019-Dec-05 14:05 289 7 gusting 13 2.2
2019-Dec-05 14:01 252 6 gusting 14 2.2
2019-Dec-05 13:55 279 6 gusting 12 1.7
2019-Dec-05 13:51 269 6 gusting 12 1.7
2019-Dec-05 13:46 269 6 gusting 13 1.7
2019-Dec-05 13:40 270 8 gusting 13 1.7
2019-Dec-05 13:35 267 6 gusting 13 1.7
2019-Dec-05 13:31 267 8 gusting 13 1.1
2019-Dec-05 13:25 265 6 gusting 11 1.1
2019-Dec-05 13:20 257 7 gusting 11 1.1
2019-Dec-05 13:10 265 7 gusting 11 1.1
2019-Dec-05 13:05 283 6 gusting 11 1.1
2019-Dec-05 13:01 281 6 gusting 11 0.6
2019-Dec-05 12:55 261 6 gusting 11 0.6
2019-Dec-05 12:50 272 6 gusting 12 0.6
2019-Dec-05 12:46 283 6 gusting 12 0.6
2019-Dec-05 12:40 273 6 gusting 11 0.6
2019-Dec-05 12:35 266 7 gusting 11 0.6
2019-Dec-05 12:31 261 7 gusting 13 0.6
2019-Dec-05 12:25 265 7 gusting 13 0.6
2019-Dec-05 12:20 272 6 gusting 11 0.6
2019-Dec-05 12:16 267 6 gusting 12 0.6
2019-Dec-05 12:10 274 7 gusting 12 0.6
2019-Dec-05 12:05 271 6 gusting 13 0.6
2019-Dec-05 12:00 269 7 gusting 13 0.6
2019-Dec-05 11:55 274 7 gusting 12 0.6
2019-Dec-05 11:50 253 6 gusting 12 0.6
2019-Dec-05 11:46 256 6 gusting 11 0.6
2019-Dec-05 11:40 262 6 gusting 12 0.6
2019-Dec-05 11:35 264 6 gusting 9 0.6
2019-Dec-05 11:30 265 5 gusting 11 0.6
2019-Dec-05 11:25 262 6 gusting 10 0.6
2019-Dec-05 11:20 268 6 gusting 10 0.6
2019-Dec-05 11:17 250 6 gusting 9 0.6
2019-Dec-05 11:10 264 6 gusting 9 0.6
2019-Dec-05 11:05 259 5 gusting 9 0.6
2019-Dec-05 11:00 278 6 gusting 9 0.6
2019-Dec-05 10:55 261 6 gusting 9 1.1
2019-Dec-05 10:50 272 6 gusting 12 1.1
2019-Dec-05 10:46 264 6 gusting 12 1.1
2019-Dec-05 10:40 261 5 gusting 10 1.1
2019-Dec-05 10:35 263 4 gusting 8 1.1
2019-Dec-05 10:30 266 5 gusting 8 1.1
2019-Dec-05 10:25 266 5 gusting 9 1.1
2019-Dec-05 10:20 263 4 gusting 9 1.1
2019-Dec-05 10:16 265 6 gusting 9 1.1
2019-Dec-05 10:10 263 6 gusting 10 1.1
2019-Dec-05 10:05 265 4 gusting 10 0.6
2019-Dec-05 10:00 263 4 gusting 8 0.6
2019-Dec-05 09:55 261 3 gusting 6 0.6
2019-Dec-05 09:50 263 5 gusting 7 0.6
2019-Dec-05 09:45 267 4 gusting 7 0.6
2019-Dec-05 09:40 265 4 gusting 8 0.6
2019-Dec-05 09:35 261 5 gusting 9 0.6
2019-Dec-05 09:25 262 6 gusting 12 0.6
2019-Dec-05 09:20 267 6 gusting 12 0.6
2019-Dec-05 09:10 257 6 gusting 9 0.6
2019-Dec-05 09:05 256 6 gusting 11 0.6
2019-Dec-05 08:55 254 6 gusting 12 0.6
2019-Dec-05 08:50 256 6 gusting 11 0.6
2019-Dec-05 08:40 262 6 gusting 11 0.6
2019-Dec-05 08:35 263 6 gusting 12 0.6
2019-Dec-05 08:25 270 7 gusting 11 0.6
2019-Dec-05 08:20 269 6 gusting 11 0.6
2019-Dec-05 08:15 252 6 gusting 13 0.6
2019-Dec-05 08:10 263 7 gusting 13 0.6
2019-Dec-05 08:05 265 7 gusting 12 0.6
2019-Dec-05 08:00 256 7 gusting 12 0.6
2019-Dec-05 07:55 260 7 gusting 11 0.6
2019-Dec-05 07:50 263 6 gusting 11 0.6
2019-Dec-05 07:45 264 5 gusting 10 0.6
2019-Dec-05 07:40 257 6 gusting 10 0.6
2019-Dec-05 07:35 254 6 gusting 9 0.6
2019-Dec-05 07:30 273 6 gusting 9 0.6
2019-Dec-05 07:21 271 5 gusting 9 1.1
2019-Dec-05 07:17 266 5 gusting 9 1.1
2019-Dec-05 07:11 273 6 gusting 9 1.1
2019-Dec-05 07:06 269 6 gusting 10 1.1
2019-Dec-05 07:01 266 6 gusting 11 1.1
2019-Dec-05 06:55 272 6 gusting 11 1.1
2019-Dec-05 06:50 280 6 gusting 10 1.1
2019-Dec-05 06:46 271 6 gusting 10 1.1
2019-Dec-05 06:41 267 6 gusting 10 1.1
2019-Dec-05 06:36 267 5 gusting 9 1.1
2019-Dec-05 06:33 279 6 gusting 9 1.1
2019-Dec-05 06:25 275 5 gusting 8 1.1
2019-Dec-05 06:20 271 5 gusting 9 1.1
2019-Dec-05 06:16 261 6 gusting 9 1.1
2019-Dec-05 06:10 265 5 gusting 8 1.1
2019-Dec-05 06:05 248 5 gusting 9 1.7
2019-Dec-05 06:02 256 5 gusting 9 1.7
2019-Dec-05 05:55 256 3 gusting 7 1.7
2019-Dec-05 05:50 247 5 gusting 8 1.7
2019-Dec-05 05:46 272 4 gusting 8 1.7
2019-Dec-05 05:40 253 3 gusting 7 1.7
2019-Dec-05 05:35 267 4 gusting 7 1.7
2019-Dec-05 05:31 258 4 gusting 7 1.7
2019-Dec-05 05:25 262 4 gusting 7 1.7
2019-Dec-05 05:20 262 4 gusting 7 1.7
2019-Dec-05 05:16 264 5 gusting 8 1.7
2019-Dec-05 05:10 267 3 gusting 8 1.7
2019-Dec-05 05:05 261 5 gusting 8 1.7
2019-Dec-05 05:01 260 4 gusting 7 1.7
2019-Dec-05 04:55 258 5 gusting 7 1.7
2019-Dec-05 04:50 259 4 gusting 7 1.7
2019-Dec-05 04:46 257 4 gusting 7 1.7
2019-Dec-05 04:40 254 3 gusting 7 1.7
2019-Dec-05 04:35 260 2 gusting 8 1.7
2019-Dec-05 04:31 251 4 gusting 8 1.7
2019-Dec-05 04:25 262 3 gusting 8 1.7
2019-Dec-05 04:20 268 2 gusting 11 1.7
2019-Dec-05 04:16 250 4 gusting 11 1.7
2019-Dec-05 04:10 264 6 gusting 11 1.7
2019-Dec-05 04:05 254 4 gusting 7 1.7
2019-Dec-05 04:01 271 5 gusting 7 1.7
2019-Dec-05 03:55 276 5 gusting 7 1.7
2019-Dec-05 03:50 264 4 gusting 7 1.7
2019-Dec-05 03:45 267 5 gusting 7 1.7
2019-Dec-05 03:40 246 4 gusting 6 1.7
2019-Dec-05 03:35 256 4 gusting 6 1.7
2019-Dec-05 03:31 255 3 gusting 6 1.7
2019-Dec-05 03:25 258 4 gusting 7 1.7
2019-Dec-05 03:20 261 4 gusting 9 1.7
2019-Dec-05 03:16 246 6 gusting 9 1.7
2019-Dec-05 03:10 267 6 gusting 9 1.7
2019-Dec-05 03:05 262 4 gusting 6 1.7
2019-Dec-05 03:02 260 4 gusting 6 1.7
2019-Dec-05 02:55 274 4 gusting 6 2.2
2019-Dec-05 02:50 271 3 gusting 8 2.2
2019-Dec-05 02:46 274 4 gusting 8 2.2
2019-Dec-05 02:40 268 5 gusting 9 2.2
2019-Dec-05 02:35 272 6 gusting 9 2.2
2019-Dec-05 02:31 282 6 gusting 12 2.2
2019-Dec-05 02:25 277 6 gusting 12 2.2
2019-Dec-05 02:20 277 5 gusting 8 2.2
2019-Dec-05 02:16 281 4 gusting 8 2.2
2019-Dec-05 02:10 283 4 gusting 8 2.2
2019-Dec-05 02:05 277 3 gusting 6 2.2
2019-Dec-05 02:01 259 1 gusting 6 2.2
2019-Dec-05 01:55 262 3 gusting 8 2.2
2019-Dec-05 01:50 275 6 gusting 10 2.2
2019-Dec-05 01:46 279 6 gusting 13 2.2
2019-Dec-05 01:40 278 7 gusting 14 2.2
2019-Dec-05 01:35 275 8 gusting 14 2.2
2019-Dec-05 01:31 276 6 gusting 13 2.2
2019-Dec-05 01:25 267 7 gusting 13 2.2
2019-Dec-05 01:20 271 6 gusting 11 2.2
2019-Dec-05 01:16 267 3 gusting 7 2.2
2019-Dec-05 01:10 254 3 gusting 11 2.2
2019-Dec-05 01:05 262 6 gusting 11 2.2
2019-Dec-05 01:01 262 6 gusting 10 2.2
2019-Dec-05 00:55 261 6 gusting 10 2.2
2019-Dec-05 00:50 268 6 gusting 9 2.2
2019-Dec-05 00:46 269 2 gusting 6 2.2
2019-Dec-05 00:40 260 4 gusting 8 2.2
2019-Dec-05 00:35 248 3 gusting 8 2.2
2019-Dec-05 00:30 244 4 gusting 7 2.2
2019-Dec-05 00:25 245 4 gusting 8 2.2
2019-Dec-05 00:20 236 5 gusting 9 2.2
2019-Dec-05 00:16 229 6 gusting 9 2.2
2019-Dec-05 00:10 224 6 gusting 8 2.2
2019-Dec-05 00:05 245 4 gusting 8 2.2
2019-Dec-05 00:01 231 5 gusting 8 2.2
2019-Dec-04 23:55 233 4 gusting 7 2.2
2019-Dec-04 23:50 256 5 gusting 8 2.2
2019-Dec-04 23:46 235 5 gusting 8 2.2
2019-Dec-04 23:40 223 5 gusting 7 2.2
2019-Dec-04 23:35 229 5 gusting 7 2.2
2019-Dec-04 23:31 231 4 gusting 7 2.2
2019-Dec-04 23:25 233 4 gusting 7 2.2
2019-Dec-04 23:20 236 3 gusting 7 2.2
2019-Dec-04 23:16 230 4 gusting 6 2.2
2019-Dec-04 23:10 219 3 gusting 6 2.2
2019-Dec-04 23:05 216 5 gusting 7 2.2
2019-Dec-04 23:01 231 6 gusting 8 2.2
2019-Dec-04 22:55 223 5 gusting 9 2.2
2019-Dec-04 22:50 231 4 gusting 7 2.2
2019-Dec-04 22:45 228 5 gusting 7 2.2
2019-Dec-04 22:40 229 4 gusting 7 2.2
2019-Dec-04 22:35 226 5 gusting 6 2.2
2019-Dec-04 22:30 227 4 gusting 6 2.2
2019-Dec-04 22:25 231 3 gusting 6 2.2
2019-Dec-04 22:20 229 2 gusting 6 2.2
2019-Dec-04 22:15 229 2 gusting 6 2.2
2019-Dec-04 22:10 229 3 gusting 6 2.2
2019-Dec-04 22:05 233 4 gusting 7 2.2
2019-Dec-04 22:00 227 4 gusting 7 2.2
2019-Dec-04 21:55 231 1 gusting 6 2.2
2019-Dec-04 21:50 212 3 gusting 7 2.2
2019-Dec-04 21:45 218 6 gusting 7 2.2
2019-Dec-04 21:40 225 5 gusting 7 2.2
2019-Dec-04 21:35 221 5 gusting 7 2.2
2019-Dec-04 21:30 225 4 gusting 6 2.2
2019-Dec-04 21:25 215 3 gusting 6 2.2
2019-Dec-04 21:20 225 4 gusting 6 2.2
2019-Dec-04 21:15 217 3 gusting 6 2.2
2019-Dec-04 21:10 233 3 gusting 6 2.2
2019-Dec-04 21:05 215 3 gusting 6 2.2
2019-Dec-04 21:01 227 2 gusting 6 2.2
2019-Dec-04 20:55 227 4 gusting 6 2.2
2019-Dec-04 20:50 229 2 gusting 6 2.2
2019-Dec-04 20:45 227 3 gusting 6 2.2
2019-Dec-04 20:40 232 4 gusting 6 2.2
2019-Dec-04 20:35 227 3 gusting 6 2.2
2019-Dec-04 20:30 235 3 gusting 6 2.2
2019-Dec-04 20:25 233 3 gusting 6 2.2
2019-Dec-04 20:20 235 3 gusting 6 2.2
2019-Dec-04 20:16 231 3 gusting 7 2.2
2019-Dec-04 20:10 231 3 gusting 6 2.2
2019-Dec-04 20:05 210 2 gusting 6 2.2
2019-Dec-04 20:01 226 3 gusting 7 2.2